Location: Stava
(46.3167°N, 11.5000°E)
Time: 03:52:39
(UTC+00:00)

Daily predictions for brighter satellites

Satellite Brightness Start Highest point End
(mag) Time Altitude Azimuth Time Altitude Azimuth Time Altitude Azimuth
Cosmos 2082 Rocket 4.4 01:29:19 21° NNE 01:29:19 21° NNE 01:31:10 10° NNE
USA 267 4.4 01:26:21 10° NE 01:30:05 37° ENE 01:30:05 37° ENE
CENTAUR R/B 4.5 01:41:43 10° NNW 01:48:33 33° NNE 01:56:09 10° E
Lacrosse 4 Rocket 4.2 02:15:31 16° E 02:15:31 16° E 02:16:51 10° E
Cosmos 1745 Rocket 4.5 02:28:55 10° N 02:35:08 58° ENE 02:39:31 20° SSE
MSX 4.2 02:33:51 10° NNE 02:38:23 57° NNE 02:38:23 57° NNE
Lacrosse 5 2.9 02:42:08 43° NNE 02:42:08 43° NNE 02:46:51 10° E
Cosmos 2360 Rocket 2.6 02:42:45 10° NNW 02:48:24 62° ENE 02:54:01 10° SE
ALOS 4.3 02:44:45 10° NE 02:48:35 25° E 02:51:39 13° SE
USA 238 DEB 4.4 02:46:11 10° NW 02:53:17 57° NE 03:00:41 10° ESE
USA 238 4.4 02:46:17 10° NW 02:53:22 57° NE 03:00:46 10° ESE
ARIANE 5 R/B 3.6 02:50:19 10° N 02:53:20 35° N 02:53:20 35° N
CZ-2C R/B 2.7 02:55:05 10° NNE 02:59:46 59° E 02:59:46 59° E
Cosmos 1386 Rocket 4.4 03:00:24 10° N 03:06:50 88° W 03:12:10 15° S
CZ-4C R/B 4.3 03:04:23 10° SSE 03:07:48 19° ESE 03:11:36 10° ENE
H-2A R/B 3.9 03:05:58 10° SE 03:09:39 30° ENE 03:13:17 10° N
SeaSat 1 4.3 03:05:35 10° ESE 03:09:48 30° NE 03:14:04 10° N
Cosmos 2333 Rocket 3.3 03:04:29 10° NNW 03:10:01 44° NE 03:15:30 10° SE
Cosmos 2082 Rocket 3.9 03:11:10 19° NNW 03:11:10 19° NNW 03:14:25 10° N
Cosmos 1842 Rocket 4.5 03:13:02 40° N 03:13:02 40° N 03:15:52 10° N
Spot 4 Rocket 4.2 03:07:41 10° N 03:12:07 59° NNW 03:12:07 59° NNW
ADEOS II 4.2 03:09:52 10° NNW 03:11:05 14° NNW 03:11:05 14° NNW
USA 267 3.7 03:09:30 10° NE 03:15:44 49° NNW 03:17:26 40° WNW
Cosmos 1484 Rocket 4.4 03:14:26 10° NNE 03:17:46 31° E 03:19:29 21° SE
IDEFIX/ARIANE 42P 4.0 03:14:08 10° N 03:16:53 24° NNW 03:16:53 24° NNW
Cosmos 2251 Rocket 4.1 03:18:56 27° S 03:21:43 55° ESE 03:26:58 10° NNE
BREEZE-M DEB (TANK) 3.2 03:22:53 73° W 03:23:18 82° NNW 03:26:19 10° ENE
NOSS 3-2 (A) 4.0 03:15:53 10° NW 03:23:26 90° NE 03:32:00 10° SE
Cosmos 1553 Rocket 4.2 03:26:48 48° W 03:27:06 48° WNW 03:33:09 10° N
Geosat 4.3 03:24:50 10° NE 03:29:50 62° ESE 03:32:20 29° S
Cosmos 2219 Rocket 2.9 03:27:42 10° NNW 03:33:16 55° ENE 03:38:50 10° SE
COSMOS 2487 2.9 03:35:20 56° ESE 03:35:23 56° ESE 03:38:45 10° NNE
PAYLOAD A 4.1 03:34:25 10° N 03:39:37 57° WNW 03:40:52 46° WSW
CENTAUR R/B 3.3 03:32:19 10° NW 03:40:27 82° NE 03:49:23 10° SE
COSMOS 2428 3.4 03:35:18 10° NNW 03:40:56 54° ENE 03:46:31 10° SE
Cosmos 1606 2.6 03:42:18 62° SSW 03:42:55 88° W 03:46:50 10° N
Cosmos 2315 Rocket 3.9 03:38:00 10° S 03:44:12 88° E 03:50:26 10° N
PSLV R/B 3.5 03:42:08 10° N 03:46:28 67° WNW 03:47:30 49° SW
BREEZE-M DEB (TANK) 3.8 03:50:58 21° NNE 03:50:58 21° NNE 03:52:07 10° NE
USA 234 3.9 03:45:17 10° S 03:50:55 31° SW 03:51:15 31° WSW
BREEZE M DEB (TANK) 2.3 03:51:34 48° NNW 03:52:00 54° NNE 03:57:10 10° E
Lacrosse 4 Rocket 1.6 03:51:57 49° WSW 03:52:10 49° WSW 03:56:23 10° S
METEOR-M 4.2 03:51:10 10° NNE 03:56:33 81° ESE 04:01:53 10° SSW
ATLAS 5 CENTAUR R/B 3.0 03:55:42 10° S 03:59:12 32° ESE 04:03:03 10° NE
ISS -2.8 03:58:45 32° NNW 03:59:44 43° NNE 04:02:58 10° E
Cosmos 1805 Rocket 3.5 03:55:34 10° NNW 04:00:00 65° W 04:04:24 10° S
NOSS 3-4 (A) 4.2 03:55:39 10° SSW 04:01:13 48° ESE 04:07:09 10° NE
NOSS 3-4 (C) 4.2 03:55:45 10° SSW 04:01:18 48° ESE 04:07:13 10° NE
Cosmos 2221 3.9 04:04:42 23° NW 04:04:42 23° NW 04:07:24 10° NNW
Cosmos 2322 3.6 03:58:18 10° NNW 04:03:59 73° WSW 04:09:37 10° SSE
NOSS 3-2 (C) 4.0 03:56:31 10° NW 04:04:05 84° SW 04:12:40 10° SSE
Cosmos 1992 Rocket 4.3 03:59:35 10° NW 04:04:26 40° WSW 04:09:15 10° S
COSMO-SKYMED 1 3.3 04:00:51 10° SSE 04:05:04 54° ENE 04:09:20 10° N
Cosmos 2074 Rocket 4.4 04:00:50 10° N 04:07:01 65° ENE 04:13:10 10° SSE
Cosmos 1933 3.4 04:03:00 10° S 04:07:01 79° E 04:11:05 10° NNE
FENGYUN 3A 3.7 04:04:57 10° N 04:10:18 60° WNW 04:15:38 10° SSW
Cosmos 2344 3.7 04:06:15 24° WSW 04:10:57 59° NW 04:19:00 10° NE
BREEZE-M DEB (TANK) 3.8 04:08:38 24° WNW 04:11:25 77° NNE 04:27:33 10° ESE
ATLAS 2AS CENTAUR R/B 3.9 04:08:36 10° S 04:16:05 49° ESE 04:23:32 10° NE
CBERS 1 LM4 rocket 4.3 04:13:39 10° N 04:18:24 63° WNW 04:23:03 10° SSW
Landsat 5 4.0 04:18:43 27° WSW 04:19:29 29° W 04:22:55 10° NW
Meteor 1-20 Rocket 4.2 04:14:27 10° NNW 04:20:10 78° W 04:25:56 10° S
SJ-12 4.1 04:17:36 10° NNE 04:21:41 74° ESE 04:25:43 10° S
Sich 1 3.2 04:17:30 10° NNW 04:21:47 50° W 04:26:01 10° SSW
Cosmos 1666 Rocket 3.4 04:19:06 10° NNW 04:23:29 78° W 04:27:51 10° S
Lacrosse 5 2.0 04:21:22 17° WNW 04:25:07 51° SW 04:30:00 10° SSE
ALOS 2.7 04:21:46 10° N 04:26:07 40° WNW 04:30:10 12° SW
ADEOS 3.5 04:21:12 10° NNE 04:26:27 84° WNW 04:31:41 10° SSW
H-2A R/B 4.1 04:23:02 10° NNE 04:26:48 44° E 04:30:30 10° S
SKYMED 3 4.5 04:24:45 10° SSE 04:29:05 85° WSW 04:33:28 10° NNW
Cosmos 1140 Rocket 3.8 04:24:27 10° S 04:29:38 70° ESE 04:34:48 10° NNE
Meteor 1-31 Rocket 2.6 04:25:48 10° N 04:29:41 75° WNW 04:33:30 10° SSW
Cosmos 2184 Rocket 4.0 04:25:17 10° N 04:31:39 88° W 04:38:01 10° S
Cosmos 2360 Rocket 3.2 04:27:38 10° NW 04:31:54 22° W 04:36:09 10° SSW
CZ-4B R/B 3.8 04:28:58 10° NNE 04:33:26 59° E 04:37:53 10° S
Cosmos 192 4.3 04:29:06 10° NNW 04:34:03 68° WSW 04:38:56 10° S
CZ-4B R/B 1.0 04:31:43 10° SSE 04:34:50 83° W 04:37:54 10° NNW
CZ-2C R/B 3.8 04:34:18 10° NNW 04:37:35 19° WNW 04:39:09 16° W
Cosmos 2237 Rocket 2.9 04:32:21 10° NNW 04:37:58 57° ENE 04:43:32 10° SE
USA 276 2.1 04:36:12 22° WSW 04:38:08 72° NNW 04:41:20 10° ENE
CZ-2C R/B 4.3 04:33:10 10° SE 04:38:18 38° ENE 04:43:26 10° N
Cosmos 909 Rocket 4.1 04:31:53 10° SW 04:38:29 70° NW 04:44:47 10° NNE
Cosmos 1023 Rocket 4.5 04:37:02 10° SSW 04:42:15 90° WNW 04:47:27 10° NNE
USA 238 DEB 4.3 04:37:25 10° NW 04:44:08 41° WSW 04:51:05 10° S
USA 238 4.3 04:37:31 10° NW 04:44:14 41° WSW 04:51:11 10° S
H-2A R/B 2.9 04:41:58 10° SSW 04:45:36 27° W 04:49:12 10° NW
SeaSat 1 2.7 04:42:22 10° S 04:47:07 48° WSW 04:51:55 10° NW
Cosmos 1484 Rocket 4.0 04:49:12 10° NNW 04:52:00 21° WNW 04:54:48 10° WSW
NOSS 0 Rocket 3.9 04:46:22 10° NNW 04:52:33 79° WSW 04:58:44 10° SSE
Cosmos 1437 Rocket 2.9 04:49:03 10° SSW 04:53:04 58° WNW 04:57:04 10° N
SKYMED 2 3.8 04:48:58 10° S 04:53:09 47° W 04:57:22 10° NNW
ATLAS 3B R/B 3.4 04:46:26 10° NW 04:53:18 58° NE 05:00:27 10° SE
Cosmos 2333 Rocket 2.9 04:49:02 10° NW 04:54:08 33° WSW 04:59:12 10° SSW
Cosmos 1151 Rocket 3.2 04:50:23 10° SSW 04:54:35 50° WNW 04:58:47 10° N
CZ-4C R/B 2.1 04:50:29 10° SW 04:55:25 69° NW 05:01:26 10° NE
Cosmos 1633 Rocket 3.4 04:52:13 10° NNW 04:56:24 42° W 05:00:31 10° SSW
Cosmos 1782 2.9 04:52:38 10° SSW 04:56:30 54° WNW 05:00:24 10° N
Cosmos 2227 Rocket 3.7 04:51:45 10° S 04:57:01 41° ESE 05:02:19 10° NE
USA 267 4.3 04:52:09 10° ENE 04:57:55 35° N 05:03:41 10° WNW
SL-16 R/B 3.9 04:54:09 10° NNW 04:59:20 34° NE 05:04:29 10° ESE
MOS 1 Rocket 3.6 04:56:40 10° SSW 05:00:45 38° W 05:05:02 10° NNW
Cosmos 1242 Rocket 3.2 04:58:08 10° S 05:01:31 58° E 05:04:58 10° NNE
Meteor 1-26 Rocket 4.4 05:01:10 10° SSW 05:06:43 54° WNW 05:12:31 10° N
SAR-Lupe-4 3.7 05:03:12 10° SSE 05:06:46 81° ENE 05:10:21 10° NNW
Cosmos 1666 3.5 05:04:20 10° N 05:08:07 57° E 05:11:53 10° SSE
H-2A R/B 4.2 04:58:02 10° WSW 05:09:05 24° SSW 05:13:07 10° SSE
COSMOS 2487 4.5 05:09:20 10° WNW 05:10:38 12° NW 05:11:58 10° NNW
Meteor PRIRODA 3.8 05:07:58 10° N 05:11:37 53° WNW 05:15:15 10° SSW
Cosmos 1689 Rocket 1.9 05:08:54 10° SSE 05:11:43 85° W 05:14:34 10° NNW
Cosmos 2341 Rocket 4.4 05:06:14 10° N 05:12:27 70° E 05:18:38 10° SSE
Cosmos 2297 Rocket 2.7 05:06:53 10° SSW 05:12:29 69° ESE 05:18:07 10° NNE
Nadezhda 1 Rocket 4.0 05:09:44 10° SSW 05:15:48 65° W 05:22:02 10° N
Cosmos 2219 Rocket 3.2 05:12:20 10° NW 05:16:51 25° WSW 05:21:22 10° SSW
